[[{"header":{"parameterUnit":"m.s-1","parameterCategory":2,"la1":30.2991,"la2":30.254,"lo1":-89.0895,"lo2":-89.0444,"dy":0.0017,"dx":0.0017,"nx":28,"ny":28,"refTime":"2024-03-21T21:00:00:Z","depth":"0","parameterNumber":2,"parameterNumberName":"U-component_of_CURRENTS"},"data":[0,0,0,0,0,0,0,0,0,0,0,0,0,0,0,0,0,0,0,0,0,0,0,0,0,0,0,0,0,0,0,0,0,0,0,0,0,0,0,0,0,0,0,0,0,0,0,0,0,0,0,0,0,0,0,0,0,0,0.314,0.314,0,0.3113,0.3112,0.3111,0.3047,0.3047,0.3046,0.3046,0.2993,0.2992,0.2991,0,0,0,0,0,0,0,0,0,0,0,0,0,0.3139,0.3139,0.314,0.314,0.3141,0.3113,0.3112,0.3111,0.3047,0.3047,0.3046,0.3045,0.2993,0.2992,0.2991,0,0,0,0,0,0,0,0,0,0,0,0,0,0.312,0.3138,0.314,0.3112,0.311,0.3113,0.3112,0.311,0.3047,0.3047,0.3046,0.3045,0.2993,0.2992,0.2991,0.2998,0,0,0.2986,0.2986,0,0,0,0,0,0,0,0,0.3121,0.3119,0.3116,0.3114,0.3112,0.309,0.3093,0.3075,0.3048,0.3062,0.3046,0.3045,0.3029,0.3025,0.3009,0.2995,0.2993,0.2986,0.2985,0.2985,0.2984,0,0,0,0,0,0,0,0.3123,0.312,0.312,0.3117,0.3114,0.3103,0.3098,0.3088,0.3043,0.3061,0.3058,0.3069,0.3026,0.3011,0.3008,0.2992,0.2986,0.2985,0.2984,0.2984,0.2973,0.2973,0,0,0,0,0,0,0.3144,0.3121,0.3122,0.3121,0.3125,0.3104,0.3099,0.3091,0.3044,0.3039,0.307,0.3067,0.3014,0.3009,0.3006,0.3022,0.2985,0.2983,0.2983,0.2972,0.2973,0.2973,0,0,0,0,0,0,0.3144,0.3144,0.3123,0.3128,0.3126,0.3106,0.3097,0.3091,0.3081,0.3053,0.3045,0.3069,0.3013,0.3008,0.2999,0.3019,0.2983,0.2982,0.2971,0.2972,0.2973,0.3048,0,0,0,0,0,0,0.3144,0.3143,0.3128,0.3129,0.3127,0.3138,0.3099,0.3091,0.3094,0.3088,0.305,0.3043,0.3012,0.3001,0.2998,0.3016,0.298,0.2971,0.2972,0.2973,0.3044,0.3051,0.3056,0,0,0,0,0,0.3143,0.3127,0.3127,0.3127,0.3111,0.314,0.3136,0.3114,0.3095,0.3099,0.3066,0.3044,0.3005,0.3001,0.2996,0.3015,0.297,0.2971,0.2973,0.3042,0.305,0.3056,0,0,0,0,0,0,0.3105,0.312,0.3119,0.3104,0.3132,0.3132,0.3128,0.3125,0.3101,0.3094,0.3053,0.3045,0.3044,0.302,0.3017,0.3013,0.2984,0.2984,0.3038,0.3045,0.3051,0.3064,0.2979,0,0,0,0,0,0.3098,0.3088,0.3121,0.3107,0.3129,0.3134,0.3136,0.3139,0.3131,0.3119,0.3092,0.3063,0.3045,0.3038,0.3017,0.3021,0.3017,0.3029,0.3035,0.304,0.3047,0.3046,0.3053,0.2977,0.2977,0.2977,0,0,0.3076,0.3085,0.3075,0.3099,0.3112,0.3152,0.313,0.3155,0.3171,0.3119,0.3112,0.3086,0.305,0.3048,0.3046,0.3031,0.3066,0.3041,0.3046,0.305,0.3048,0.3056,0.3062,0.2978,0.2978,0.2978,0,0,0.3071,0.3049,0.3069,0.3099,0.3147,0.3155,0.3174,0.3197,0.3189,0.3198,0.3157,0.3143,0.3119,0.3094,0.3079,0.3108,0.3096,0.3104,0.3147,0.3147,0.3154,0.3159,0.3195,0.3204,0.3108,0.3108,0.3108,0,0.3056,0.3077,0.308,0.3128,0.3151,0.3168,0.3217,0.3217,0.3226,0.3227,0.3207,0.317,0.3139,0.3135,0.3139,0.3122,0.3133,0.3125,0.3157,0.3162,0.3166,0.3201,0.3209,0.3112,0.3111,0.3111,0.3111,0,0.3094,0.3112,0.3131,0.3188,0.321,0.3252,0.3282,0.3292,0.3286,0.3289,0.3288,0.3244,0.3222,0.3213,0.3183,0.3201,0.3205,0.3166,0.3143,0.3179,0.3214,0.3221,0.3117,0.3116,0.3115,0.3114,0,0,0.3097,0.3147,0.3165,0.3191,0.3249,0.3274,0.3305,0.3344,0.3353,0.3356,0.3365,0.3335,0.3317,0.3298,0.3262,0.326,0.3305,0.3234,0.3232,0.3279,0.3342,0.3473,0.3493,0.3275,0.3276,0.3277,0.3366,0,0.3147,0.322,0.3238,0.3301,0.3341,0.3357,0.3372,0.3397,0.34,0.3406,0.3388,0.338,0.3348,0.3337,0.3334,0.3302,0.3322,0.3287,0.3291,0.3292,0.3411,0.3504,0.3364,0.3443,0.3372,0.3373,0.3374,0,0.322,0.3246,0.331,0.3343,0.3365,0.3389,0.3413,0.3439,0.3454,0.345,0.3457,0.3447,0.3454,0.3407,0.3413,0.3396,0.3384,0.3364,0.3366,0.3465,0.3437,0.3388,0.3458,0.3353,0.3385,0.3384,0.3383,0,0.3232,0.3311,0.3344,0.3362,0.3398,0.341,0.3429,0.3447,0.3467,0.3483,0.3511,0.3505,0.3514,0.3496,0.3503,0.3451,0.3523,0.3435,0.3551,0.356,0.3432,0.3431,0.3405,0.3449,0.3449,0.3449,0.3449,0,0.3283,0.3316,0.3343,0.3357,0.3388,0.3411,0.3436,0.3453,0.3477,0.3515,0.3536,0.3568,0.3536,0.3587,0.3551,0.3626,0.3574,0.3599,0.3603,0.3461,0.3461,0.3356,0.3301,0.3452,0.3452,0.3451,0.345,0,0.3292,0.3318,0.3355,0.3382,0.3392,0.3411,0.3447,0.3459,0.35,0.3555,0.3576,0.3631,0.3721,0.375,0.3738,0.3723,0.3655,0.3778,0.3655,0.3647,0.3657,0.3611,0.3487,0.3391,0.3903,0.3907,0.391,0,0.3301,0.3316,0.3359,0.3366,0.3374,0.34,0.3409,0.3452,0.3474,0.3596,0.3624,0.3761,0.3843,0.3954,0.3965,0.4015,0.3811,0.3893,0.3768,0.3695,0.3642,0.3451,0.3361,0.3615,0.3616,0.3616,0.3617,0,0.3296,0.331,0.3327,0.3351,0.3365,0.3386,0.3412,0.3436,0.3507,0.3577,0.3681,0.3772,0.396,0.3962,0.4095,0.4074,0.3719,0.3914,0.381,0.3435,0.324,0.3137,0.3552,0.3622,0.3621,0.3621,0.362,0.362,0.3287,0.3299,0.332,0.3333,0.3353,0.3361,0.3335,0.3387,0.3443,0.3507,0.3651,0.3726,0.3837,0.4024,0.402,0.3921,0.3857,0.3734,0.3693,0.3514,0.3394,0.3902,0.4006,0.4008,0.401,0.4011,0.4012,0,0.3282,0.3286,0.3294,0.3306,0.3289,0.3316,0.332,0.3269,0.3296,0.342,0.3504,0.3584,0.3645,0.3702,0.3745,0.3659,0.341,0.3533,0.3135,0.3064,0.3481,0.3445,0.3465,0.3465,0.3465,0.3466,0.3466,0.3466,0.3283,0.3279,0.3272,0.3233,0.3223,0.3162,0.3133,0.3093,0.3127,0.3128,0.3143,0.3223,0.3362,0.3471,0.341,0.3338,0.3053,0.2956,0.2946,0.316,0.317,0.3179,0.313,0.3084,0.3084,0.2336,0.2331,0.2327]},{"header":{"parameterUnit":"m.s-1","parameterCategory":2,"la1":30.2991,"la2":30.254,"lo1":-89.0895,"lo2":-89.0444,"dy":0.0017,"dx":0.0017,"nx":28,"ny":28,"refTime":"2024-03-21T21:00:00:Z","depth":"0","parameterNumber":3,"parameterNumberName":"V-component_of_CURRENTS"},"data":[0,0,0,0,0,0,0,0,0,0,0,0,0,0,0,0,0,0,0,0,0,0,0,0,0,0,0,0,0,0,0,0,0,0,0,0,0,0,0,0,0,0,0,0,0,0,0,0,0,0,0,0,0,0,0,0,0,0,-0.0865,-0.0867,0,-0.0957,-0.0957,-0.0957,-0.0973,-0.0973,-0.0973,-0.0973,-0.1036,-0.1038,-0.1039,0,0,0,0,0,0,0,0,0,0,0,0,0,-0.0764,-0.0765,-0.0865,-0.0867,-0.0869,-0.0957,-0.0957,-0.0957,-0.0972,-0.0973,-0.0973,-0.0973,-0.1036,-0.1038,-0.104,0,0,0,0,0,0,0,0,0,0,0,0,0,-0.0818,-0.0765,-0.0865,-0.0895,-0.0899,-0.0957,-0.0957,-0.0957,-0.0972,-0.0973,-0.0973,-0.0973,-0.1035,-0.1037,-0.104,-0.105,0,0,-0.1047,-0.1048,0,0,0,0,0,0,0,0,-0.0814,-0.082,-0.0888,-0.0893,-0.0898,-0.0962,-0.0945,-0.0991,-0.0972,-0.0934,-0.0973,-0.0973,-0.1015,-0.1019,-0.1022,-0.1053,-0.1056,-0.1047,-0.1049,-0.105,-0.105,0,0,0,0,0,0,0,-0.0811,-0.0817,-0.0891,-0.0891,-0.0897,-0.0925,-0.0931,-0.0953,-0.0964,-0.0937,-0.0941,-0.0967,-0.1016,-0.102,-0.1024,-0.1057,-0.1047,-0.1049,-0.1051,-0.1052,-0.1129,-0.113,0,0,0,0,0,0,-0.0816,-0.0813,-0.0889,-0.0895,-0.0867,-0.0927,-0.0934,-0.0933,-0.0965,-0.0973,-0.0967,-0.0968,-0.1016,-0.1021,-0.1026,-0.1058,-0.105,-0.1052,-0.1053,-0.1128,-0.1129,-0.113,0,0,0,0,0,0,-0.0813,-0.0821,-0.0885,-0.0866,-0.0877,-0.0929,-0.0929,-0.0935,-0.0941,-0.0989,-0.0995,-0.0968,-0.1016,-0.1023,-0.1043,-0.106,-0.1053,-0.1055,-0.1128,-0.1129,-0.113,-0.1111,0,0,0,0,0,0,-0.0809,-0.0818,-0.0788,-0.0865,-0.0879,-0.0912,-0.093,-0.0937,-0.0962,-0.0963,-0.0992,-0.0998,-0.1017,-0.1039,-0.1045,-0.1063,-0.1057,-0.1127,-0.1128,-0.1129,-0.1111,-0.1111,-0.1111,0,0,0,0,0,-0.0804,-0.0765,-0.0785,-0.0794,-0.0845,-0.0913,-0.092,-0.0953,-0.0962,-0.0958,-0.098,-0.0997,-0.1052,-0.1041,-0.1048,-0.1067,-0.1126,-0.1128,-0.1129,-0.111,-0.1111,-0.1111,0,0,0,0,0,0,-0.0696,-0.0767,-0.0789,-0.077,-0.0838,-0.0919,-0.0913,-0.0951,-0.0965,-0.0962,-0.0997,-0.1005,-0.1031,-0.105,-0.1037,-0.1095,-0.1096,-0.1098,-0.1079,-0.108,-0.108,-0.1065,-0.1059,0,0,0,0,0,-0.0665,-0.0656,-0.0749,-0.0734,-0.0766,-0.084,-0.0862,-0.0903,-0.0947,-0.0953,-0.0981,-0.1012,-0.1043,-0.106,-0.1084,-0.111,-0.1116,-0.113,-0.1131,-0.1131,-0.1124,-0.1157,-0.1159,-0.1135,-0.1135,-0.1135,0,0,-0.0627,-0.0659,-0.0657,-0.0711,-0.076,-0.0811,-0.085,-0.0895,-0.0931,-0.0959,-0.0982,-0.1009,-0.1049,-0.1078,-0.1093,-0.1096,-0.1137,-0.1132,-0.1132,-0.1126,-0.1158,-0.1161,-0.1163,-0.1136,-0.1135,-0.1135,0,0,-0.0584,-0.0575,-0.058,-0.0632,-0.0717,-0.0767,-0.0785,-0.0873,-0.0895,-0.0938,-0.0968,-0.0999,-0.1046,-0.1078,-0.1102,-0.1119,-0.1135,-0.1138,-0.1131,-0.1162,-0.1164,-0.1166,-0.1156,-0.1157,-0.1141,-0.1141,-0.1141,0,-0.0542,-0.0555,-0.0593,-0.0631,-0.0668,-0.0752,-0.0793,-0.0833,-0.0913,-0.093,-0.0941,-0.1016,-0.1048,-0.1094,-0.1104,-0.112,-0.1127,-0.1124,-0.1161,-0.1164,-0.1166,-0.1155,-0.1157,-0.114,-0.1141,-0.1141,-0.1141,0,-0.0541,-0.0546,-0.0555,-0.0624,-0.066,-0.0704,-0.0793,-0.082,-0.086,-0.0911,-0.0957,-0.1001,-0.1044,-0.1071,-0.1095,-0.1136,-0.113,-0.1154,-0.1156,-0.1167,-0.1155,-0.1157,-0.1139,-0.114,-0.114,-0.114,0,0,-0.0484,-0.0543,-0.0551,-0.0569,-0.0661,-0.0695,-0.0744,-0.0815,-0.0831,-0.0904,-0.0927,-0.1001,-0.1024,-0.1053,-0.1092,-0.1127,-0.1147,-0.1148,-0.115,-0.1128,-0.1188,-0.1052,-0.1041,-0.1182,-0.1183,-0.1184,-0.1165,0,-0.0487,-0.0524,-0.0563,-0.0599,-0.0626,-0.0693,-0.0722,-0.0786,-0.0832,-0.0864,-0.0934,-0.0964,-0.1021,-0.103,-0.1082,-0.1123,-0.1155,-0.1147,-0.1188,-0.1188,-0.1059,-0.104,-0.0923,-0.0885,-0.1166,-0.1167,-0.1167,0,-0.0493,-0.0509,-0.054,-0.0569,-0.0588,-0.0616,-0.0656,-0.0699,-0.0768,-0.0798,-0.0855,-0.0903,-0.0963,-0.1006,-0.1093,-0.1086,-0.1137,-0.1174,-0.1175,-0.1055,-0.1056,-0.0926,-0.0878,-0.1046,-0.117,-0.117,-0.117,0,-0.0435,-0.0491,-0.0497,-0.0518,-0.0573,-0.0581,-0.0611,-0.0671,-0.0677,-0.0746,-0.0733,-0.0843,-0.085,-0.0957,-0.1022,-0.1068,-0.1091,-0.1165,-0.1092,-0.1082,-0.0991,-0.0971,-0.11,-0.1232,-0.1232,-0.1233,-0.1233,0,-0.0414,-0.0418,-0.0463,-0.0464,-0.0454,-0.0518,-0.0507,-0.0552,-0.0585,-0.0536,-0.0681,-0.0638,-0.0839,-0.0872,-0.0983,-0.0997,-0.1058,-0.1069,-0.1066,-0.0977,-0.0957,-0.1104,-0.122,-0.1232,-0.1232,-0.1232,-0.1232,0,-0.0345,-0.0386,-0.0381,-0.0417,-0.0421,-0.0409,-0.0419,-0.0394,-0.0447,-0.0379,-0.0384,-0.0479,-0.0494,-0.0653,-0.0784,-0.0885,-0.0996,-0.095,-0.08,-0.0779,-0.0876,-0.0992,-0.1057,-0.1128,-0.0886,-0.0883,-0.088,0,-0.0311,-0.0301,-0.0316,-0.0289,-0.0297,-0.0288,-0.0257,-0.0315,-0.0261,-0.0229,-0.0157,-0.0188,-0.0109,-0.0255,-0.0444,-0.0582,-0.0815,-0.0625,-0.0703,-0.0837,-0.097,-0.1057,-0.1123,-0.0582,-0.0576,-0.0572,-0.0569,0,-0.0219,-0.0225,-0.0211,-0.0151,-0.0113,-0.0068,-0.0017,0.0041,0.0044,0.016,0.0321,0.0383,0.0247,0.0181,-0.0058,-0.0201,-0.0695,-0.0539,-0.0746,-0.0777,-0.0817,-0.0895,-0.0627,-0.0531,-0.0535,-0.0538,-0.054,-0.0541,-0.0128,-0.0082,-0.0043,0.0021,0.0075,0.0198,0.0306,0.0417,0.0596,0.0847,0.0801,0.1029,0.0723,0.0448,0.0182,-0.0275,-0.037,-0.0436,-0.0574,-0.0656,-0.0701,-0.0305,-0.0164,-0.0166,-0.0167,-0.0169,-0.017,0,0.0025,0.0078,0.0141,0.0254,0.0382,0.0357,0.0519,0.0688,0.102,0.1263,0.1501,0.1555,0.1228,0.0712,0.0083,-0.0262,-0.0471,-0.0504,-0.0673,-0.0751,-0.0445,-0.0409,-0.023,-0.023,-0.023,-0.023,-0.023,-0.023,0.0124,0.024,0.0276,0.053,0.0623,0.0844,0.0971,0.1232,0.1449,0.1881,0.2097,0.2185,0.176,0.0574,-0.029,-0.0525,-0.0862,-0.0826,-0.1072,-0.094,-0.0948,-0.0956,-0.0952,-0.0891,-0.0892,-0.1304,-0.1308,-0.1311]}],[{"header":{"parameterUnit":"m.s-1","parameterCategory":2,"la1":30.2991,"la2":30.254,"lo1":-89.0895,"lo2":-89.0444,"dy":0.0017,"dx":0.0017,"nx":28,"ny":28,"refTime":"2024-03-21T21:00:00:Z","depth":"2","parameterNumber":2,"parameterNumberName":"U-component_of_CURRENTS"},"data":[0,0,0,0,0,0,0,0,0,0,0,0,0,0,0,0,0,0,0,0,0,0,0,0,0,0,0,0,0,0,0,0,0,0,0,0,0,0,0,0,0,0,0,0,0,0,0,0,0,0,0,0,0,0,0,0,0,0,0.2133,0.2133,0,0.213,0.2129,0.2129,0.2124,0.2124,0.2124,0.2125,0.2156,0.2156,0.2157,0,0,0,0,0,0,0,0,0,0,0,0,0,0.2096,0.2097,0.2133,0.2133,0.2133,0.213,0.2129,0.2129,0.2124,0.2124,0.2125,0.2125,0.2155,0.2156,0.2157,0,0,0,0,0,0,0,0,0,0,0,0,0,0.2102,0.2097,0.2133,0.2132,0.2132,0.213,0.2129,0.2129,0.2124,0.2124,0.2125,0.2125,0.2155,0.2156,0.2157,0.2159,0,0,0.216,0.2161,0,0,0,0,0,0,0,0,0.2102,0.2103,0.2132,0.2132,0.2132,0.213,0.2128,0.2142,0.2124,0.2124,0.2125,0.2125,0.2152,0.2153,0.2148,0.216,0.2162,0.216,0.2161,0.2161,0.2162,0,0,0,0,0,0,0,0.2101,0.2103,0.2129,0.2132,0.2132,0.2119,0.212,0.213,0.2135,0.2124,0.2125,0.2128,0.2152,0.2147,0.2149,0.2162,0.216,0.2161,0.2162,0.2162,0.2226,0.2227,0,0,0,0,0,0,0.2109,0.2103,0.2129,0.2129,0.212,0.212,0.2121,0.2128,0.2135,0.2136,0.2128,0.2128,0.2145,0.2147,0.215,0.2259,0.2161,0.2162,0.2163,0.2225,0.2226,0.2227,0,0,0,0,0,0,0.2108,0.2111,0.2129,0.2117,0.2119,0.2121,0.2129,0.2128,0.2143,0.2138,0.2139,0.2147,0.2145,0.2148,0.2178,0.2257,0.2163,0.2164,0.2223,0.2225,0.2226,0.241,0,0,0,0,0,0,0.2107,0.2111,0.2116,0.2118,0.212,0.2142,0.2129,0.2128,0.2145,0.2146,0.2154,0.2155,0.2146,0.2176,0.2179,0.2256,0.2165,0.2222,0.2224,0.2226,0.2403,0.2418,0.2431,0,0,0,0,0,0.2106,0.2103,0.2116,0.2119,0.2128,0.2143,0.2143,0.2142,0.2146,0.2156,0.2165,0.2156,0.2191,0.2178,0.2181,0.2261,0.2221,0.2223,0.2226,0.2397,0.2415,0.2431,0,0,0,0,0,0,0.2085,0.2103,0.2117,0.212,0.2142,0.2143,0.2152,0.2157,0.217,0.2182,0.2172,0.2174,0.2225,0.2202,0.2188,0.2276,0.2204,0.2207,0.2333,0.235,0.2364,0.2364,0.2165,0,0,0,0,0,0.2087,0.2101,0.2117,0.213,0.2142,0.2156,0.2162,0.2173,0.2185,0.2192,0.2199,0.2208,0.2232,0.2259,0.2254,0.2313,0.23,0.2358,0.2373,0.2385,0.2382,0.245,0.2472,0.2235,0.2235,0.2235,0,0,0.2085,0.21,0.2107,0.2129,0.2148,0.217,0.216,0.219,0.2222,0.2195,0.224,0.2251,0.2249,0.2311,0.2333,0.2312,0.2444,0.2388,0.24,0.239,0.2456,0.2479,0.25,0.2236,0.2236,0.2236,0,0,0.209,0.2108,0.2121,0.2148,0.2187,0.2195,0.2212,0.2235,0.226,0.2293,0.2301,0.2367,0.2363,0.2422,0.2439,0.2525,0.2501,0.2515,0.2619,0.2688,0.2709,0.2728,0.2745,0.2763,0.2544,0.2544,0.2544,0,0.2092,0.2112,0.2128,0.2159,0.2189,0.2212,0.2245,0.2271,0.2305,0.2344,0.2319,0.2398,0.2423,0.2541,0.2583,0.2569,0.2567,0.2571,0.2713,0.273,0.2746,0.2759,0.2777,0.2553,0.2552,0.2551,0.255,0,0.2112,0.2137,0.2154,0.2203,0.2234,0.2272,0.2317,0.2367,0.2392,0.2413,0.251,0.2551,0.2605,0.2644,0.2645,0.2792,0.2739,0.2715,0.2685,0.2783,0.2788,0.2804,0.2566,0.2563,0.256,0.2558,0,0,0.209,0.2154,0.216,0.2196,0.2269,0.2292,0.2379,0.245,0.2514,0.2559,0.2641,0.2742,0.2771,0.2793,0.2839,0.2925,0.3069,0.2883,0.2882,0.2924,0.3183,0.3042,0.3045,0.3075,0.3079,0.3082,0.3144,0,0.2105,0.2152,0.2191,0.2254,0.2284,0.2365,0.2456,0.2536,0.2574,0.2653,0.2746,0.2817,0.2825,0.2889,0.2981,0.3032,0.3116,0.3051,0.3056,0.3055,0.2942,0.3061,0.2881,0.2911,0.3158,0.3161,0.3163,0,0.2103,0.2139,0.2201,0.2305,0.2334,0.2386,0.2527,0.2595,0.2724,0.2779,0.287,0.2901,0.3062,0.3033,0.3191,0.3143,0.3179,0.321,0.3212,0.3023,0.2945,0.2849,0.293,0.3188,0.3186,0.3184,0.3183,0,0.2059,0.2138,0.2189,0.2226,0.2356,0.2429,0.2494,0.263,0.2709,0.284,0.2898,0.3041,0.311,0.3201,0.3259,0.3241,0.3378,0.3358,0.3262,0.325,0.3065,0.303,0.3469,0.3469,0.3469,0.3469,0.3469,0,0.2053,0.209,0.2175,0.2207,0.2309,0.2404,0.251,0.2618,0.2762,0.2851,0.2945,0.3023,0.3154,0.3228,0.3287,0.3308,0.3405,0.3293,0.3275,0.3118,0.3088,0.3288,0.3266,0.3471,0.3471,0.347,0.347,0,0.2006,0.2068,0.2121,0.2242,0.2288,0.235,0.2496,0.2559,0.2721,0.2835,0.2892,0.3028,0.3125,0.3217,0.3346,0.3315,0.3376,0.3357,0.3133,0.3087,0.3193,0.318,0.327,0.3266,0.3263,0.326,0.3257,0,0.1982,0.2011,0.2104,0.2138,0.2194,0.2287,0.236,0.253,0.258,0.282,0.2856,0.2996,0.3057,0.3152,0.3177,0.3241,0.3309,0.3044,0.2989,0.3209,0.3182,0.3174,0.3166,0.2823,0.2817,0.2812,0.2808,0,0.1941,0.198,0.2019,0.2083,0.2142,0.2211,0.2301,0.2349,0.2554,0.2652,0.276,0.284,0.2949,0.2899,0.2962,0.2969,0.3021,0.2943,0.3282,0.2878,0.2786,0.2759,0.2767,0.2766,0.2771,0.2774,0.2776,0.2778,0.1902,0.193,0.1983,0.204,0.2094,0.2145,0.2161,0.2238,0.2334,0.2477,0.258,0.2635,0.2706,0.2691,0.2632,0.259,0.2794,0.2687,0.2704,0.2725,0.2639,0.2544,0.2461,0.2464,0.2466,0.2468,0.2469,0,0.1907,0.1953,0.1942,0.2005,0.1999,0.2094,0.2142,0.2114,0.215,0.2279,0.2354,0.2224,0.2242,0.2315,0.2215,0.22,0.2199,0.209,0.21,0.2146,0.2185,0.2072,0.1744,0.1741,0.1737,0.1735,0,0,0.1953,0.1951,0.1931,0.1915,0.1958,0.1957,0.198,0.1923,0.1952,0.1921,0.1954,0.2168,0.2277,0.1986,0.1959,0.1833,0.1959,0.1757,0.2358,0.2419,0.2454,0.2568,0.2449,0,0,0,0,0]},{"header":{"parameterUnit":"m.s-1","parameterCategory":2,"la1":30.2991,"la2":30.254,"lo1":-89.0895,"lo2":-89.0444,"dy":0.0017,"dx":0.0017,"nx":28,"ny":28,"refTime":"2024-03-21T21:00:00:Z","depth":"2","parameterNumber":3,"parameterNumberName":"V-component_of_CURRENTS"},"data":[0,0,0,0,0,0,0,0,0,0,0,0,0,0,0,0,0,0,0,0,0,0,0,0,0,0,0,0,0,0,0,0,0,0,0,0,0,0,0,0,0,0,0,0,0,0,0,0,0,0,0,0,0,0,0,0,0,0,0.0306,0.0307,0,0.0321,0.0321,0.032,0.0294,0.0294,0.0293,0.0293,0.0227,0.0226,0.0225,0,0,0,0,0,0,0,0,0,0,0,0,0,0.0242,0.0243,0.0306,0.0307,0.0308,0.0321,0.0321,0.032,0.0294,0.0294,0.0293,0.0293,0.0228,0.0226,0.0224,0,0,0,0,0,0,0,0,0,0,0,0,0,0.0259,0.0243,0.0306,0.0301,0.0301,0.0321,0.0321,0.032,0.0294,0.0294,0.0293,0.0293,0.0229,0.0226,0.0224,0.0219,0,0,0.0217,0.0216,0,0,0,0,0,0,0,0,0.0258,0.026,0.0301,0.0301,0.0302,0.0311,0.0275,0.0285,0.0294,0.029,0.0293,0.0293,0.0253,0.0248,0.0244,0.0216,0.0213,0.0217,0.0216,0.0215,0.0214,0,0,0,0,0,0,0,0.0257,0.0259,0.0305,0.0302,0.0302,0.0294,0.0295,0.0276,0.0267,0.029,0.029,0.0302,0.0251,0.0246,0.0242,0.0212,0.0217,0.0215,0.0214,0.0213,0.0196,0.0197,0,0,0,0,0,0,0.0269,0.0259,0.0305,0.0306,0.0286,0.0296,0.0297,0.0303,0.0269,0.0266,0.0303,0.0301,0.025,0.0245,0.024,0.0199,0.0215,0.0213,0.0212,0.0195,0.0196,0.0197,0,0,0,0,0,0,0.0268,0.0273,0.0304,0.0288,0.0293,0.0299,0.0305,0.0304,0.0293,0.028,0.0274,0.0293,0.025,0.0243,0.0226,0.0197,0.0212,0.021,0.0194,0.0196,0.0197,0.0138,0,0,0,0,0,0,0.0266,0.0272,0.0269,0.0289,0.0294,0.0329,0.0306,0.0305,0.0305,0.0302,0.027,0.0264,0.0249,0.023,0.0224,0.0194,0.0208,0.0193,0.0195,0.0196,0.0139,0.0137,0.0135,0,0,0,0,0,0.0263,0.0273,0.0269,0.0275,0.0294,0.0331,0.0332,0.033,0.0305,0.0313,0.0285,0.0265,0.0236,0.0228,0.0221,0.019,0.0192,0.0194,0.0196,0.0139,0.0137,0.0135,0,0,0,0,0,0,0.0249,0.0273,0.0268,0.0285,0.031,0.0329,0.0331,0.0327,0.0311,0.0301,0.0268,0.0262,0.0246,0.0238,0.023,0.0199,0.0214,0.0215,0.0173,0.0171,0.017,0.0233,0.0206,0,0,0,0,0,0.0245,0.0248,0.0283,0.0292,0.0305,0.0312,0.0319,0.0329,0.0326,0.0318,0.0288,0.0266,0.0251,0.0226,0.0228,0.0193,0.0201,0.0178,0.0176,0.0174,0.0227,0.0158,0.0154,0.0204,0.0204,0.0204,0,0,0.0243,0.0254,0.0256,0.0288,0.0295,0.0334,0.0313,0.0339,0.0356,0.0313,0.0296,0.0268,0.0251,0.0226,0.0215,0.0205,0.017,0.0177,0.0174,0.023,0.016,0.0154,0.015,0.0205,0.0205,0.0205,0,0,0.026,0.0249,0.027,0.029,0.0323,0.0341,0.0349,0.0366,0.0354,0.0355,0.0321,0.0284,0.0257,0.0228,0.0212,0.0209,0.018,0.0193,0.0202,0.0132,0.0127,0.0122,0.0138,0.0135,0.0167,0.0166,0.0166,0,0.0255,0.0296,0.0284,0.0316,0.0344,0.0346,0.0398,0.0388,0.0392,0.0389,0.0358,0.0312,0.027,0.0237,0.0225,0.0202,0.0184,0.0193,0.0125,0.0121,0.0117,0.0135,0.0132,0.0164,0.0164,0.0164,0.0165,0,0.0307,0.0335,0.0349,0.0388,0.0408,0.0456,0.0464,0.0464,0.0445,0.0442,0.0415,0.0347,0.0321,0.0275,0.0241,0.0187,0.0194,0.0139,0.0118,0.0107,0.0128,0.0127,0.016,0.0161,0.0162,0.0163,0,0,0.0326,0.038,0.0388,0.0428,0.0461,0.0498,0.0508,0.0547,0.0562,0.0514,0.0517,0.0437,0.0385,0.037,0.0286,0.0209,0.0138,0.0151,0.0149,0.0152,0.0033,0.0008,0.0004,0.0032,0.0031,0.003,0.0062,0,0.0385,0.0473,0.0479,0.0564,0.0619,0.0613,0.0624,0.0637,0.0629,0.0621,0.0535,0.0509,0.0419,0.0374,0.0283,0.0195,0.013,0.014,0.0063,0.0065,0.0024,-0.0,-0.0014,0.0008,0.0061,0.006,0.006,0,0.0457,0.0508,0.0602,0.0671,0.0691,0.0723,0.0766,0.0781,0.0758,0.0734,0.0681,0.0621,0.0528,0.0429,0.0283,0.0281,0.0173,0.0094,0.009,0.01,0.0035,0.0028,0.0004,0.0058,0.0058,0.0058,0.0058,0,0.0515,0.0605,0.0687,0.0709,0.0767,0.0789,0.0819,0.0816,0.0826,0.08,0.0807,0.0697,0.0643,0.0487,0.0331,0.0284,0.0187,0.0096,-0.0006,-0.0005,-0.0003,-0.0002,-0.0006,-0.0006,-0.0006,-0.0006,-0.0006,0,0.0597,0.0664,0.0716,0.076,0.0839,0.0845,0.0912,0.0914,0.0905,0.0948,0.0855,0.0859,0.064,0.0556,0.0388,0.022,0.0227,0.0033,-0.0012,-0.002,-0.0021,0.0034,0.0038,-0.0005,-0.0005,-0.0005,-0.0005,0,0.0647,0.0688,0.0777,0.0843,0.0868,0.0912,0.0969,0.1011,0.0998,0.1049,0.1037,0.0967,0.0862,0.0685,0.047,0.031,0.0142,0.0075,0.0131,0.0089,-0.0008,-0.0006,-0.0032,-0.0033,-0.0034,-0.0035,-0.0035,0,0.0687,0.0735,0.0826,0.0873,0.0904,0.0974,0.1024,0.1038,0.1093,0.1134,0.117,0.1088,0.1042,0.0768,0.0473,0.0217,0.0172,0.0042,-0.0072,0.0025,-0.0016,-0.0014,-0.0011,-0.0072,-0.0072,-0.0073,-0.0073,0,0.0746,0.0763,0.0827,0.0921,0.0986,0.1077,0.1162,0.1208,0.1254,0.1302,0.1353,0.1312,0.1062,0.078,0.0436,0.0244,0.0076,0.0018,0.0088,-0.0075,-0.0015,-0.0054,-0.005,-0.0079,-0.0079,-0.0078,-0.0078,-0.0078,0.0762,0.0808,0.088,0.0965,0.1048,0.1158,0.1242,0.1334,0.1418,0.1482,0.1469,0.1408,0.1123,0.0635,0.0346,0.0029,0.0025,-0.0109,-0.0107,-0.0103,-0.0126,-0.0073,-0.0146,-0.0146,-0.0146,-0.0146,-0.0145,0,0.0771,0.0828,0.0928,0.1029,0.112,0.1166,0.1319,0.1394,0.1512,0.1554,0.1562,0.127,0.0965,0.065,0.016,-0.0123,-0.0159,-0.0204,-0.0189,-0.0182,-0.0176,-0.0203,-0.0243,-0.0244,-0.0244,-0.0245,0,0,0.0767,0.0851,0.0913,0.1058,0.1136,0.1266,0.1353,0.1462,0.1528,0.155,0.1501,0.1413,0.1041,0.0683,0.0305,0.0031,-0.0012,-0.003,0.0071,0.0139,0.0149,-0.0107,-0.0139,0,0,0,0,0]}],[{"header":{"parameterUnit":"m.s-1","parameterCategory":2,"la1":30.2991,"la2":30.254,"lo1":-89.0895,"lo2":-89.0444,"dy":0.0017,"dx":0.0017,"nx":28,"ny":28,"refTime":"2024-03-21T21:00:00:Z","depth":"4","parameterNumber":2,"parameterNumberName":"U-component_of_CURRENTS"},"data":[0,0,0,0,0,0,0,0,0,0,0,0,0,0,0,0,0,0,0,0,0,0,0,0,0,0,0,0,0,0,0,0,0,0,0,0,0,0,0,0,0,0,0,0,0,0,0,0,0,0,0,0,0,0,0,0,0,0,0.112,0.112,0,0.1182,0.1183,0.1184,0.1255,0.1256,0.1257,0.1257,0.1292,0.1292,0.1293,0,0,0,0,0,0,0,0,0,0,0,0,0,0.1043,0.1045,0.112,0.112,0.1121,0.1182,0.1183,0.1185,0.1255,0.1256,0.1257,0.1257,0.1292,0.1292,0.1293,0,0,0,0,0,0,0,0,0,0,0,0,0,0.1094,0.1046,0.112,0.1159,0.1163,0.1182,0.1183,0.1185,0.1255,0.1256,0.1257,0.1258,0.1291,0.1292,0.1293,0.128,0,0,0.1295,0.1295,0,0,0,0,0,0,0,0,0.1091,0.1097,0.1153,0.1156,0.1161,0.1207,0.1169,0.1213,0.1255,0.1226,0.1257,0.1258,0.1257,0.126,0.1278,0.1281,0.1283,0.1295,0.1295,0.1295,0.1295,0,0,0,0,0,0,0,0.1087,0.1095,0.115,0.1153,0.1158,0.1166,0.1175,0.1178,0.124,0.1229,0.1232,0.123,0.1259,0.1278,0.1279,0.1283,0.1295,0.1295,0.1295,0.1296,0.1361,0.1362,0,0,0,0,0,0,0.1069,0.1091,0.1148,0.1152,0.1121,0.1167,0.1177,0.1196,0.124,0.1247,0.1229,0.1233,0.1276,0.1279,0.1281,0.1333,0.1295,0.1296,0.1296,0.136,0.1361,0.1363,0,0,0,0,0,0,0.1067,0.1074,0.1146,0.1117,0.1126,0.1167,0.1188,0.1196,0.1243,0.124,0.1248,0.1269,0.1277,0.128,0.1315,0.1332,0.1296,0.1297,0.1358,0.136,0.1362,0.1395,0,0,0,0,0,0,0.1065,0.1074,0.1099,0.1117,0.1127,0.1163,0.1186,0.1197,0.1235,0.1242,0.1275,0.1278,0.1278,0.1314,0.1315,0.1332,0.1297,0.1356,0.1359,0.1361,0.1392,0.1398,0.1402,0,0,0,0,0,0.1063,0.1081,0.11,0.1107,0.1155,0.1163,0.117,0.1204,0.1237,0.1252,0.129,0.1279,0.1331,0.1316,0.1317,0.1334,0.1355,0.1358,0.1361,0.1389,0.1396,0.1402,0,0,0,0,0,0,0.106,0.109,0.1111,0.1141,0.1154,0.1173,0.1193,0.1219,0.1264,0.1281,0.1295,0.13,0.1337,0.1334,0.1317,0.1363,0.1341,0.1345,0.1362,0.1369,0.1374,0.1377,0.1298,0,0,0,0,0,0.1069,0.1098,0.1115,0.114,0.1148,0.118,0.1196,0.1216,0.1244,0.1268,0.1294,0.1322,0.1345,0.1358,0.1372,0.1394,0.141,0.1408,0.1413,0.1417,0.1423,0.1484,0.1495,0.1373,0.1373,0.1373,0,0,0.1073,0.1094,0.1111,0.1142,0.1162,0.1177,0.1195,0.1217,0.1247,0.126,0.1322,0.1341,0.1357,0.1388,0.1403,0.1391,0.1459,0.1421,0.1425,0.1428,0.1488,0.15,0.1511,0.1375,0.1374,0.1374,0,0,0.1075,0.1115,0.1134,0.1149,0.1172,0.1189,0.12,0.1233,0.1269,0.1316,0.1339,0.1371,0.1411,0.1422,0.1434,0.1476,0.1487,0.1486,0.1513,0.1573,0.1583,0.1593,0.1619,0.1631,0.1487,0.1487,0.1487,0,0.1081,0.1106,0.1137,0.1153,0.1163,0.1198,0.1208,0.1249,0.1294,0.1328,0.134,0.1426,0.1426,0.1472,0.1486,0.1485,0.1522,0.1485,0.158,0.159,0.1599,0.1624,0.1636,0.1489,0.1489,0.1489,0.1489,0,0.1081,0.1114,0.1122,0.1161,0.118,0.1189,0.123,0.1269,0.132,0.1366,0.1439,0.1458,0.1513,0.1512,0.1511,0.1575,0.158,0.1581,0.1562,0.1613,0.1636,0.1648,0.1492,0.1491,0.1491,0.149,0,0,0.1054,0.1112,0.1116,0.1141,0.1182,0.1195,0.1245,0.1297,0.1357,0.1416,0.1494,0.1528,0.1569,0.1584,0.1592,0.1627,0.1703,0.1637,0.164,0.1659,0.1835,0.1714,0.1716,0.1741,0.1743,0.1746,0.182,0,0.1042,0.1071,0.1102,0.1138,0.1155,0.1201,0.125,0.1312,0.1383,0.1472,0.1523,0.1604,0.1593,0.1631,0.167,0.1704,0.1741,0.1682,0.1785,0.1787,0.1672,0.1728,0.1754,0.1829,0.1832,0.1834,0.1835,0,0.1014,0.1046,0.1071,0.1139,0.1152,0.1186,0.1269,0.1322,0.1446,0.1506,0.1601,0.1671,0.1745,0.1729,0.1826,0.1803,0.1826,0.1838,0.1842,0.1727,0.169,0.1771,0.1858,0.1856,0.1854,0.1853,0.1851,0,0.0961,0.1018,0.1041,0.106,0.1144,0.1177,0.123,0.1339,0.1403,0.1551,0.1623,0.1738,0.1803,0.187,0.1903,0.1896,0.1995,0.1986,0.1894,0.1885,0.1956,0.1945,0.2057,0.2057,0.2057,0.2057,0.2056,0,0.0912,0.0936,0.1028,0.1045,0.1094,0.1165,0.1244,0.1313,0.1437,0.1522,0.1656,0.1736,0.185,0.1925,0.1946,0.1951,0.204,0.1907,0.1905,0.1965,0.1955,0.1963,0.1951,0.2059,0.2059,0.2058,0.2058,0,0.0836,0.0892,0.0938,0.1037,0.1071,0.1113,0.1234,0.1297,0.1423,0.1536,0.1593,0.1762,0.187,0.1944,0.2036,0.1986,0.2008,0.1982,0.2028,0.2026,0.185,0.184,0.191,0.1906,0.1903,0.1901,0.1899,0,0.0795,0.0813,0.0924,0.0956,0.1003,0.1084,0.1139,0.1271,0.1338,0.1535,0.1579,0.1745,0.1842,0.1884,0.196,0.1998,0.1971,0.1954,0.191,0.1849,0.184,0.1834,0.1827,0.1894,0.1894,0.1893,0.1892,0,0.0729,0.078,0.0818,0.089,0.0952,0.1013,0.1105,0.1148,0.1305,0.1431,0.1553,0.1641,0.175,0.1834,0.186,0.1882,0.1955,0.1923,0.1929,0.1888,0.1831,0.1824,0.1821,0.1882,0.1883,0.1884,0.1885,0,0.0678,0.0688,0.0755,0.0804,0.088,0.0924,0.0988,0.1083,0.117,0.1386,0.1421,0.1601,0.1736,0.1773,0.1805,0.1813,0.18,0.1732,0.1747,0.1759,0.1674,0.1577,0.1558,0,0,0,0,0,0.0617,0.0619,0.0666,0.072,0.0796,0.0846,0.0955,0.1029,0.1187,0.1237,0.1328,0.1434,0.1534,0.163,0.1614,0.1729,0.1786,0.17,0.1709,0.1826,0.1838,0.1749,0,0,0,0,0,0,0.0568,0.0601,0.0629,0.0648,0.0679,0.0752,0.0825,0.093,0.0975,0.1144,0.122,0.1337,0.1464,0.1533,0.1586,0.1607,0.158,0.1801,0.1797,0.1819,0.183,0.1839,0.1753,0,0,0,0,0]},{"header":{"parameterUnit":"m.s-1","parameterCategory":2,"la1":30.2991,"la2":30.254,"lo1":-89.0895,"lo2":-89.0444,"dy":0.0017,"dx":0.0017,"nx":28,"ny":28,"refTime":"2024-03-21T21:00:00:Z","depth":"4","parameterNumber":3,"parameterNumberName":"V-component_of_CURRENTS"},"data":[0,0,0,0,0,0,0,0,0,0,0,0,0,0,0,0,0,0,0,0,0,0,0,0,0,0,0,0,0,0,0,0,0,0,0,0,0,0,0,0,0,0,0,0,0,0,0,0,0,0,0,0,0,0,0,0,0,0,0.0397,0.0397,0,0.0395,0.0395,0.0395,0.0391,0.0391,0.0391,0.0391,0.0387,0.0387,0.0386,0,0,0,0,0,0,0,0,0,0,0,0,0,0.0385,0.0385,0.0397,0.0397,0.0397,0.0395,0.0395,0.0395,0.0391,0.0391,0.0391,0.0391,0.0387,0.0387,0.0386,0,0,0,0,0,0,0,0,0,0,0,0,0,0.0386,0.0385,0.0397,0.0396,0.0396,0.0395,0.0395,0.0395,0.0391,0.0391,0.0391,0.0391,0.0387,0.0387,0.0386,0.0384,0,0,0.0386,0.0386,0,0,0,0,0,0,0,0,0.0386,0.0386,0.0396,0.0396,0.0396,0.0395,0.0389,0.0392,0.0391,0.0391,0.0391,0.0391,0.039,0.0389,0.0387,0.0384,0.0384,0.0386,0.0386,0.0386,0.0385,0,0,0,0,0,0,0,0.0386,0.0386,0.0395,0.0396,0.0396,0.0392,0.0392,0.039,0.0389,0.0391,0.0391,0.0393,0.039,0.0387,0.0387,0.0383,0.0386,0.0386,0.0385,0.0385,0.041,0.041,0,0,0,0,0,0,0.0389,0.0386,0.0395,0.0395,0.0392,0.0392,0.0392,0.0394,0.0389,0.0389,0.0393,0.0393,0.0388,0.0387,0.0387,0.0423,0.0386,0.0385,0.0385,0.0409,0.041,0.0411,0,0,0,0,0,0,0.0389,0.039,0.0395,0.0392,0.0392,0.0392,0.0394,0.0394,0.0401,0.0391,0.0391,0.0402,0.0388,0.0387,0.0397,0.0422,0.0385,0.0385,0.0408,0.0409,0.041,0.0471,0,0,0,0,0,0,0.0389,0.039,0.0391,0.0392,0.0392,0.0408,0.0394,0.0394,0.0402,0.0402,0.0398,0.0397,0.0388,0.0397,0.0397,0.0421,0.0385,0.0407,0.0409,0.041,0.0468,0.0474,0.0479,0,0,0,0,0,0.0388,0.0395,0.0391,0.0392,0.0394,0.0409,0.041,0.0408,0.0402,0.0413,0.0408,0.0398,0.0406,0.0398,0.0397,0.0421,0.0406,0.0408,0.041,0.0465,0.0473,0.0479,0,0,0,0,0,0,0.0394,0.0395,0.0391,0.0398,0.0408,0.0409,0.0419,0.0415,0.0419,0.0418,0.0406,0.0406,0.0424,0.0412,0.0403,0.0432,0.0405,0.0407,0.0448,0.0455,0.046,0.047,0.0385,0,0,0,0,0,0.0394,0.0396,0.0403,0.0409,0.0418,0.0418,0.0423,0.0423,0.0426,0.0428,0.0425,0.0422,0.0429,0.0433,0.0432,0.0447,0.0414,0.0462,0.0468,0.0473,0.0479,0.0449,0.0452,0.0417,0.0416,0.0416,0,0,0.0397,0.0398,0.0399,0.0409,0.0417,0.044,0.0422,0.0437,0.0456,0.0427,0.0451,0.0442,0.0436,0.0456,0.0463,0.045,0.0463,0.0475,0.0479,0.0483,0.0451,0.0455,0.0457,0.0418,0.0417,0.0417,0,0,0.0416,0.0411,0.0425,0.0438,0.0452,0.0455,0.0464,0.0472,0.0479,0.0496,0.0483,0.0488,0.0495,0.0497,0.0499,0.0534,0.0493,0.0536,0.0575,0.0546,0.0549,0.055,0.0501,0.0498,0.054,0.054,0.054,0,0.042,0.0443,0.0434,0.0459,0.048,0.0469,0.0504,0.0508,0.0516,0.0528,0.0514,0.0524,0.0517,0.0543,0.0558,0.0548,0.0515,0.0552,0.0553,0.0554,0.0555,0.0504,0.05,0.0543,0.0543,0.0543,0.0542,0,0.0459,0.0479,0.0494,0.0521,0.0539,0.0567,0.0577,0.0591,0.0593,0.0594,0.0614,0.0596,0.0603,0.0603,0.0595,0.0608,0.0575,0.0562,0.0536,0.0563,0.0506,0.0501,0.0548,0.0547,0.0546,0.0545,0,0,0.0467,0.0513,0.052,0.0549,0.0578,0.0599,0.0635,0.0668,0.069,0.0684,0.0711,0.0715,0.0692,0.0693,0.0674,0.0652,0.0626,0.0616,0.0613,0.0567,0.0543,0.0471,0.0457,0.0611,0.0611,0.0611,0.0496,0,0.0507,0.057,0.0582,0.0645,0.0683,0.0692,0.0729,0.0748,0.0753,0.0768,0.0749,0.0761,0.073,0.0733,0.0707,0.0648,0.0617,0.0657,0.0524,0.052,0.0453,0.0451,0.061,0.0492,0.049,0.0489,0.0489,0,0.0544,0.0584,0.0659,0.0717,0.0737,0.0771,0.0825,0.0855,0.0867,0.0869,0.0865,0.0837,0.0817,0.078,0.0685,0.071,0.0637,0.058,0.0574,0.0484,0.0439,0.0462,0.0478,0.0479,0.048,0.0481,0.0481,0,0.0561,0.0634,0.07,0.0722,0.0786,0.0826,0.0862,0.089,0.0924,0.093,0.0938,0.0897,0.0872,0.0788,0.0667,0.0678,0.0536,0.0535,0.0397,0.039,0.0463,0.0462,0.0464,0.0465,0.0465,0.0465,0.0466,0,0.0595,0.0645,0.0717,0.0752,0.083,0.0862,0.0935,0.0956,0.0993,0.1019,0.0991,0.0977,0.0872,0.0777,0.0674,0.0503,0.0536,0.0398,0.0358,0.0489,0.0492,0.0457,0.0458,0.0461,0.0462,0.0463,0.0463,0,0.0599,0.0649,0.0722,0.0806,0.084,0.0894,0.099,0.1029,0.1059,0.1088,0.1094,0.1033,0.0896,0.0765,0.0602,0.05,0.0357,0.0289,0.0418,0.0388,0.0229,0.0235,0.0133,0.013,0.0127,0.0125,0.0123,0,0.0605,0.0647,0.0753,0.0802,0.0847,0.0936,0.0994,0.1058,0.1093,0.1106,0.1107,0.1004,0.0932,0.0644,0.051,0.0286,0.0257,0.0178,0.0228,0.0225,0.0197,0.0207,0.0216,0.0118,0.0117,0.0116,0.0116,0,0.061,0.0651,0.0709,0.0808,0.0883,0.097,0.1051,0.1079,0.113,0.1164,0.1091,0.0962,0.0793,0.0601,0.0413,0.0264,0.0232,0.0147,0.0154,0.02,0.0205,0.0182,0.0194,0.0106,0.0107,0.0108,0.0108,0,0.0602,0.0638,0.0714,0.0797,0.0889,0.0959,0.1017,0.1049,0.1089,0.11,0.1062,0.0917,0.0841,0.0586,0.0421,0.0253,0.0224,0.0183,0.0187,0.0196,0.025,0.0268,0.0149,0,0,0,0,0,0.0586,0.0623,0.0699,0.0784,0.0871,0.0927,0.1028,0.1078,0.1122,0.1063,0.1068,0.091,0.0657,0.0564,0.038,0.0366,0.0194,0.0144,0.0148,0.0049,0.0061,0.0108,0,0,0,0,0,0,0.0574,0.0636,0.0678,0.0748,0.08,0.0897,0.0958,0.1001,0.0976,0.0998,0.0868,0.084,0.0601,0.0744,0.0362,0.0317,0.029,0.0046,0.0041,0.0043,0.0053,0.0063,0.0115,0,0,0,0,0]}]]